Location: Asheville, NC
(35.6000°N, 82.5500°W)
Time: 00:23:02
(UTC-04:00)

DOVE 4 - Pass Details

Date: 11 March 2018
Orbit: 589 x 803 km, 97.7° (Epoch: 18 June)

Event Time Altitude Azimuth Distance (km) Brightness Sun altitude
Rises 07:09:09 0° 356° (N) 3,308 ? -8.4°
Reaches altitude 10° 07:11:58 10° 342° (NNW) 2,359 ? -7.9°
Maximum altitude 07:15:53 22° 293° (WNW) 1,645 ? -7.1°
Drops below altitude 10° 07:19:42 10° 244° (WSW) 2,278 ? -6.3°
Sets 07:22:24 0° 229° (SW) 3,164 ? -5.7°
